Location: Madrid
(40.4000°N, 3.6830°W)
Time: 09:01:33
(UTC+01:00)

ISS - Pass Details

Date: 14 November 2017
Orbit: 402 x 407 km, 51.6° (Epoch: 21 November)

Event Time Altitude Azimuth Distance (km) Brightness Sun altitude
Exits shadow 05:45:16 15° 38° (NE) 1,201 -1.1 -25.6°
Drops below altitude 10° 05:46:28 10° 59° (ENE) 1,454 -0.3 -25.4°
Sets 05:49:06 0° 81° (E) 2,312 1.3 -24.9°
